| time (UTC) | temp C | wind direction | speed KPH | gust KPH | rain 1hr cm | rain 24hr cm | rain mn cm | humidity % | barometer mb |
| 20260504184358 | 22 | 128 | 1.6 | 8.0 | 0.00 | 0.00 | 0.00 | 39 | 1013.3 |
| 20260504183857 | 22 | 173 | 0.0 | 4.8 | 0.00 | 0.00 | 0.00 | 42 | 1013.2 |
| 20260504183358 | 22 | 153 | 0.0 | 6.4 | 0.00 | 0.00 | 0.00 | 42 | 1013.3 |
| 20260504182405 | 22 | 109 | 1.6 | 3.2 | 0.00 | 0.00 | 0.00 | 40 | 1013.5 |
| 20260504181902 | 22 | 155 | 1.6 | 3.2 | 0.00 | 0.00 | 0.00 | 44 | 1013.6 |
| 20260504181358 | 22 | 214 | 1.6 | 9.7 | 0.00 | 0.00 | 0.00 | 42 | 1013.6 |
| 20260504175855 | 22 | 129 | 0.0 | 4.8 | 0.00 | 0.00 | 0.00 | 39 | 1013.7 |
| 20260504175359 | 22 | 151 | 1.6 | 9.7 | 0.00 | 0.00 | 0.00 | 39 | 1013.9 |
| 20260504174902 | 21 | 166 | 1.6 | 9.7 | 0.00 | 0.00 | 0.00 | 42 | 1013.9 |
| 20260504174400 | 21 | 178 | 0.0 | 4.8 | 0.00 | 0.00 | 0.00 | 40 | 1014.0 |
| 20260504173900 | 21 | 115 | 1.6 | 4.8 | 0.00 | 0.00 | 0.00 | 39 | 1014.0 |
| 20260504173355 | 21 | 163 | 1.6 | 6.4 | 0.00 | 0.00 | 0.00 | 40 | 1014.2 |
| 20260504172852 | 21 | 96 | 1.6 | 8.0 | 0.00 | 0.00 | 0.00 | 43 | 1014.2 |
| 20260504172352 | 21 | 180 | 1.6 | 8.0 | 0.00 | 0.00 | 0.00 | 42 | 1014.2 |
| 20260504171859 | 21 | 169 | 1.6 | 8.0 | 0.00 | 0.00 | 0.00 | 46 | 1014.3 |
| 20260504170855 | 21 | 159 | 1.6 | 6.4 | 0.00 | 0.00 | 0.00 | 43 | 1014.5 |
| 20260504170354 | 21 | 178 | 1.6 | 6.4 | 0.00 | 0.00 | 0.00 | 42 | 1014.4 |
| 20260504160347 | 20 | 138 | 1.6 | 4.8 | 0.00 | 0.00 | 0.00 | 46 | 1014.8 |
| 20260504150834 | 19 | 355 | 0.0 | 3.2 | 0.00 | 0.00 | 0.00 | 53 | 1015.3 |
| 20260504141325 | 17 | 182 | 0.0 | 1.6 | 0.00 | 0.00 | 0.00 | 63 | 1015.6 |
| 20260504140320 | 17 | 135 | 0.0 | 3.2 | 0.00 | 0.00 | 0.00 | 62 | 1016.0 |
| 20260504130809 | 15 | 144 | 0.0 | 1.6 | 0.00 | 0.00 | 0.00 | 69 | 1016.5 |
| 20260504130307 | 15 | 155 | 0.0 | 1.6 | 0.00 | 0.00 | 0.00 | 69 | 1016.4 |
| 20260504120301 | 12 | 140 | 0.0 | 1.6 | 0.00 | 0.00 | 0.00 | 79 | 1016.9 |
| 20260504100236 | 11 | 140 | 0.0 | 0.0 | 0.00 | 0.00 | 0.00 | 82 | 1017.2 |
| 20260504081706 | 10 | 144 | 0.0 | 3.2 | 0.00 | 0.00 | 0.00 | 80 | 1017.5 |
| 20260504081206 | 10 | 140 | 0.0 | 3.2 | 0.00 | 0.00 | 0.00 | 80 | 1017.5 |
| 20260504080705 | 10 | 166 | 0.0 | 1.6 | 0.00 | 0.00 | 0.00 | 80 | 1017.5 |
| 20260504080207 | 10 | 171 | 0.0 | 1.6 | 0.00 | 0.00 | 0.00 | 80 | 1017.6 |
| 20260504070154 | 10 | 181 | 0.0 | 6.4 | 0.00 | 0.00 | 0.00 | 74 | 1017.6 |
| 20260504060147 | 9 | 165 | 0.0 | 1.6 | 0.00 | 0.00 | 0.00 | 69 | 1017.4 |
| 20260504050646 | 9 | 163 | 0.0 | 1.6 | 0.00 | 0.00 | 0.00 | 69 | 1017.5 |
| 20260504050140 | 8 | 163 | 0.0 | 1.6 | 0.00 | 0.00 | 0.00 | 68 | 1017.4 |
| 20260504045640 | 8 | 163 | 0.0 | 0.0 | 0.00 | 0.00 | 0.00 | 68 | 1017.5 |
| 20260504045136 | 8 | 163 | 0.0 | 0.0 | 0.00 | 0.00 | 0.00 | 68 | 1017.3 |
| 20260504044637 | 8 | 163 | 0.0 | 0.0 | 0.00 | 0.00 | 0.00 | 68 | 1017.2 |
| 20260504044133 | 8 | 163 | 0.0 | 0.0 | 0.00 | 0.00 | 0.00 | 68 | 1017.3 |
| 20260504043633 | 8 | 163 | 0.0 | 0.0 | 0.00 | 0.00 | 0.00 | 68 | 1017.2 |
| 20260504043131 | 8 | 163 | 0.0 | 0.0 | 0.00 | 0.00 | 0.00 | 68 | 1017.2 |
| 20260504042133 | 8 | 163 | 0.0 | 0.0 | 0.00 | 0.00 | 0.00 | 68 | 1017.0 |
| 20260504041634 | 8 | 163 | 0.0 | 0.0 | 0.00 | 0.00 | 0.00 | 68 | 1017.0 |
| 20260504041136 | 8 | 163 | 0.0 | 0.0 | 0.00 | 0.00 | 0.00 | 68 | 1016.9 |
| 20260504040632 | 8 | 163 | 0.0 | 0.0 | 0.00 | 0.00 | 0.00 | 68 | 1016.8 |
| 20260504040130 | 8 | 163 | 0.0 | 0.0 | 0.00 | 0.00 | 0.00 | 68 | 1016.8 |
| 20260504035628 | 8 | 163 | 0.0 | 0.0 | 0.00 | 0.00 | 0.00 | 69 | 1016.7 |
| 20260504035119 | 8 | 163 | 0.0 | 0.0 | 0.00 | 0.00 | 0.00 | 69 | 1016.7 |
| 20260504034621 | 8 | 163 | 0.0 | 0.0 | 0.00 | 0.00 | 0.00 | 70 | 1016.7 |
| 20260504034125 | 8 | 163 | 0.0 | 0.0 | 0.00 | 0.00 | 0.00 | 69 | 1016.7 |
| 20260504033117 | 8 | 163 | 0.0 | 0.0 | 0.00 | 0.00 | 0.00 | 68 | 1016.6 |
| 20260504032617 | 8 | 163 | 0.0 | 0.0 | 0.00 | 0.00 | 0.00 | 69 | 1016.8 |
| 20260504032110 | 8 | 163 | 0.0 | 0.0 | 0.00 | 0.00 | 0.00 | 70 | 1016.7 |
| 20260504031609 | 8 | 163 | 0.0 | 0.0 | 0.00 | 0.00 | 0.00 | 72 | 1016.7 |
| 20260504031107 | 8 | 163 | 0.0 | 0.0 | 0.00 | 0.00 | 0.00 | 71 | 1016.7 |
| 20260504030610 | 8 | 163 | 0.0 | 0.0 | 0.00 | 0.00 | 0.00 | 69 | 1016.7 |
| 20260504030134 | 8 | 163 | 0.0 | 0.0 | 0.00 | 0.00 | 0.00 | 69 | 1016.7 |
| 20260504025110 | 9 | 163 | 0.0 | 0.0 | 0.00 | 0.00 | 0.00 | 68 | 1016.7 |
| 20260504024605 | 9 | 163 | 0.0 | 0.0 | 0.00 | 0.00 | 0.00 | 68 | 1016.8 |
| 20260504024101 | 9 | 163 | 0.0 | 0.0 | 0.00 | 0.00 | 0.00 | 69 | 1016.8 |
| 20260504022604 | 9 | 163 | 0.0 | 0.0 | 0.00 | 0.00 | 0.00 | 65 | 1016.7 |
| 20260504022105 | 9 | 163 | 0.0 | 0.0 | 0.00 | 0.00 | 0.00 | 64 | 1016.7 |
| 20260504021105 | 10 | 163 | 0.0 | 0.0 | 0.00 | 0.00 | 0.00 | 66 | 1016.7 |
| 20260504020603 | 10 | 163 | 0.0 | 0.0 | 0.00 | 0.00 | 0.00 | 65 | 1016.7 |
| 20260504020050 | 10 | 163 | 0.0 | 0.0 | 0.00 | 0.00 | 0.00 | 63 | 1016.7 |
| 20260504015549 | 10 | 163 | 0.0 | 0.0 | 0.00 | 0.00 | 0.00 | 65 | 1016.6 |
| 20260504014537 | 10 | 163 | 0.0 | 0.0 | 0.00 | 0.00 | 0.00 | 65 | 1016.6 |
| 20260504013535 | 10 | 163 | 0.0 | 0.0 | 0.00 | 0.00 | 0.00 | 63 | 1016.5 |
| 20260504013031 | 10 | 163 | 0.0 | 0.0 | 0.00 | 0.00 | 0.00 | 63 | 1016.4 |
| 20260504012553 | 10 | 163 | 0.0 | 0.0 | 0.00 | 0.00 | 0.00 | 63 | 1016.4 |
| 20260504011521 | 10 | 163 | 0.0 | 0.0 | 0.00 | 0.00 | 0.00 | 59 | 1016.3 |
| 20260504010527 | 11 | 163 | 0.0 | 0.0 | 0.00 | 0.00 | 0.00 | 60 | 1016.2 |
| 20260504010024 | 11 | 163 | 0.0 | 0.0 | 0.00 | 0.00 | 0.00 | 59 | 1016.2 |
| 20260504005519 | 11 | 163 | 0.0 | 0.0 | 0.00 | 0.00 | 0.00 | 58 | 1016.1 |
| 20260504005017 | 11 | 163 | 0.0 | 0.0 | 0.00 | 0.00 | 0.00 | 58 | 1016.2 |
| 20260504004515 | 11 | 163 | 0.0 | 0.0 | 0.00 | 0.00 | 0.00 | 56 | 1016.1 |
| 20260504004025 | 12 | 163 | 0.0 | 0.0 | 0.00 | 0.00 | 0.00 | 54 | 1016.0 |
| 20260504003512 | 12 | 163 | 0.0 | 0.0 | 0.00 | 0.00 | 0.00 | 54 | 1016.0 |
| 20260504002513 | 12 | 163 | 0.0 | 0.0 | 0.00 | 0.00 | 0.00 | 52 | 1015.7 |
| 20260504002011 | 12 | 163 | 0.0 | 0.0 | 0.00 | 0.00 | 0.00 | 50 | 1015.7 |
| 20260504001510 | 12 | 163 | 0.0 | 0.0 | 0.00 | 0.00 | 0.00 | 50 | 1015.6 |
| 20260504001006 | 13 | 163 | 0.0 | 0.0 | 0.00 | 0.00 | 0.00 | 49 | 1015.4 |
| 20260504000513 | 13 | 163 | 0.0 | 0.0 | 0.00 | 0.00 | 0.00 | 49 | 1015.5 |
| 20260503235503 | 13 | 163 | 0.0 | 0.0 | 0.00 | 0.00 | 0.00 | 48 | 1015.5 |
| 20260503235020 | 13 | 163 | 0.0 | 1.6 | 0.00 | 0.00 | 0.00 | 46 | 1015.4 |
| 20260503234010 | 14 | 163 | 0.0 | 1.6 | 0.00 | 0.00 | 0.00 | 45 | 1015.4 |
| 20260503233507 | 14 | 163 | 0.0 | 1.6 | 0.00 | 0.00 | 0.00 | 45 | 1015.3 |
| 20260503233008 | 14 | 163 | 0.0 | 1.6 | 0.00 | 0.00 | 0.00 | 44 | 1015.3 |
| 20260503232010 | 14 | 213 | 0.0 | 3.2 | 0.00 | 0.00 | 0.00 | 44 | 1015.4 |
| 20260503231505 | 14 | 207 | 0.0 | 3.2 | 0.00 | 0.00 | 0.00 | 43 | 1015.3 |
| 20260503231007 | 14 | 168 | 0.0 | 1.6 | 0.00 | 0.00 | 0.00 | 45 | 1015.2 |
| 20260503230503 | 14 | 200 | 1.6 | 4.8 | 0.00 | 0.00 | 0.00 | 43 | 1015.1 |
| 20260503230003 | 14 | 202 | 1.6 | 6.4 | 0.00 | 0.00 | 0.00 | 44 | 1015.1 |
| 20260503225507 | 14 | 113 | 1.6 | 6.4 | 0.00 | 0.00 | 0.00 | 41 | 1015.0 |
| 20260503225003 | 14 | 196 | 1.6 | 9.7 | 0.00 | 0.00 | 0.00 | 43 | 1015.2 |
| 20260503224503 | 15 | 153 | 1.6 | 9.7 | 0.00 | 0.00 | 0.00 | 41 | 1015.2 |
| 20260503223505 | 15 | 216 | 1.6 | 8.0 | 0.00 | 0.00 | 0.00 | 41 | 1015.2 |
| 20260503223010 | 15 | 136 | 1.6 | 8.0 | 0.00 | 0.00 | 0.00 | 41 | 1015.1 |
| 20260503222502 | 15 | 157 | 1.6 | 8.0 | 0.00 | 0.00 | 0.00 | 43 | 1015.0 |
| 20260503221004 | 15 | 185 | 3.2 | 14.5 | 0.00 | 0.00 | 0.00 | 41 | 1015.1 |
| 20260503220506 | 15 | 152 | 1.6 | 8.0 | 0.00 | 0.00 | 0.00 | 42 | 1015.1 |
| 20260503220003 | 15 | 140 | 1.6 | 11.3 | 0.00 | 0.00 | 0.00 | 42 | 1015.2 |
| 20260503215501 | 15 | 198 | 1.6 | 11.3 | 0.00 | 0.00 | 0.00 | 43 | 1015.2 |
| 20260503214504 | 15 | 150 | 1.6 | 14.5 | 0.00 | 0.00 | 0.00 | 41 | 1015.2 |
| 20260503214006 | 15 | 159 | 1.6 | 14.5 | 0.00 | 0.00 | 0.00 | 41 | 1015.1 |
| 20260503213003 | 15 | 159 | 3.2 | 9.7 | 0.00 | 0.00 | 0.00 | 42 | 1015.2 |
| 20260503212506 | 15 | 192 | 3.2 | 9.7 | 0.00 | 0.00 | 0.00 | 41 | 1015.1 |
| 20260503211503 | 15 | 120 | 3.2 | 11.3 | 0.00 | 0.00 | 0.00 | 42 | 1015.1 |
| 20260503211003 | 15 | 206 | 1.6 | 11.3 | 0.00 | 0.00 | 0.00 | 41 | 1014.9 |
| 20260503210502 | 15 | 220 | 1.6 | 8.0 | 0.00 | 0.00 | 0.00 | 43 | 1015.0 |
| 20260503210002 | 15 | 181 | 3.2 | 9.7 | 0.00 | 0.00 | 0.00 | 45 | 1014.9 |
| 20260503205504 | 14 | 189 | 3.2 | 11.3 | 0.00 | 0.00 | 0.00 | 41 | 1015.0 |
| 20260503204959 | 14 | 163 | 3.2 | 12.9 | 0.00 | 0.00 | 0.00 | 40 | 1014.8 |
| 20260503204458 | 15 | 190 | 3.2 | 14.5 | 0.00 | 0.00 | 0.00 | 42 | 1015.0 |
| 20260503203947 | 15 | 155 | 3.2 | 14.5 | 0.00 | 0.00 | 0.00 | 42 | 1014.7 |
| 20260503203448 | 15 | 159 | 3.2 | 12.9 | 0.00 | 0.00 | 0.00 | 43 | 1014.9 |
| 20260503202948 | 15 | 198 | 1.6 | 11.3 | 0.00 | 0.00 | 0.00 | 42 | 1014.7 |
| 20260503202446 | 14 | 97 | 3.2 | 11.3 | 0.00 | 0.00 | 0.00 | 44 | 1014.8 |
| 20260503201949 | 14 | 156 | 3.2 | 14.5 | 0.00 | 0.00 | 0.00 | 41 | 1014.8 |
| 20260503201449 | 14 | 166 | 3.2 | 16.1 | 0.00 | 0.00 | 0.00 | 41 | 1014.8 |
| 20260503200451 | 14 | 153 | 1.6 | 11.3 | 0.00 | 0.00 | 0.00 | 43 | 1015.1 |
| 20260503195948 | 14 | 157 | 3.2 | 12.9 | 0.00 | 0.00 | 0.00 | 43 | 1015.0 |
| 20260503195450 | 14 | 211 | 3.2 | 12.9 | 0.00 | 0.00 | 0.00 | 42 | 1015.0 |
| 20260503194946 | 14 | 207 | 3.2 | 11.3 | 0.00 | 0.00 | 0.00 | 42 | 1015.0 |
| 20260503194451 | 14 | 124 | 3.2 | 11.3 | 0.00 | 0.00 | 0.00 | 44 | 1015.0 |
| 20260503193946 | 14 | 149 | 3.2 | 9.7 | 0.00 | 0.00 | 0.00 | 44 | 1015.1 |
| 20260503193445 | 14 | 205 | 3.2 | 14.5 | 0.00 | 0.00 | 0.00 | 44 | 1015.1 |
| 20260503192949 | 14 | 199 | 3.2 | 14.5 | 0.00 | 0.00 | 0.00 | 46 | 1015.0 |
| 20260503191938 | 14 | 196 | 3.2 | 12.9 | 0.00 | 0.00 | 0.00 | 43 | 1015.3 |
| 20260503191433 | 13 | 124 | 3.2 | 11.3 | 0.00 | 0.00 | 0.00 | 47 | 1015.3 |
| 20260503190927 | 13 | 213 | 3.2 | 9.7 | 0.00 | 0.00 | 0.00 | 44 | 1015.2 |
| 20260503190420 | 13 | 134 | 3.2 | 9.7 | 0.00 | 0.00 | 0.00 | 43 | 1015.3 |
| 20260503185915 | 13 | 148 | 3.2 | 11.3 | 0.00 | 0.00 | 0.00 | 43 | 1015.4 |
| 20260503185405 | 13 | 170 | 1.6 | 11.3 | 0.00 | 0.00 | 0.00 | 43 | 1015.5 |
| 20260503184910 | 13 | 250 | 1.6 | 8.0 | 0.00 | 0.00 | 0.00 | 47 | 1015.2 |